WMT6WB LATI-LIPX

Flight info

Callsign WMT6WB
Flight time 1h 20m
Altitude 36000
Route DIRES DCT EBELA DCT KOFER DCT LABIN/N0355F180 L614 OSTEG
Aircraft A321/M-SDE3FGHIRWY/LB1

Departure

Time 2026-05-08 08:31
Airport Tirana International Airport Mother Teresa (LATI)

Arrival

Time 2026-05-08 09:51
Airport Verona Villafranca Valerio Catullo Airport (LIPX)
Time Latitude Longitude Altitude Speed Heading
2026-05-08 08:12 41.42105 19.71494 119 ft 0 kts 264°
2026-05-08 08:24 41.42105 19.71495 94 ft 1 kts 264°
2026-05-08 08:24 41.42106 19.71527 118 ft 4 kts 280°
2026-05-08 08:25 41.42096 19.71556 119 ft 4 kts 329°
2026-05-08 08:25 41.42086 19.71562 119 ft 2 kts 354°
2026-05-08 08:28 41.42087 19.71562 119 ft 2 kts 354°
2026-05-08 08:28 41.42160 19.71552 121 ft 19 kts 354°
2026-05-08 08:29 41.42317 19.71529 119 ft 24 kts 354°
2026-05-08 08:29 41.42489 19.71507 116 ft 25 kts 354°
2026-05-08 08:29 41.42636 19.71495 116 ft 17 kts 16°
2026-05-08 08:29 41.42671 19.71636 118 ft 17 kts 84°
2026-05-08 08:30 41.42683 19.71800 115 ft 18 kts 85°
2026-05-08 08:30 41.42630 19.71902 118 ft 15 kts 174°
2026-05-08 08:30 41.41823 19.72010 122 ft 123 kts 174°
2026-05-08 08:31 41.40809 19.72158 318 ft 157 kts 172°
2026-05-08 08:31 41.39731 19.72316 1059 ft 157 kts 172°
2026-05-08 08:31 41.38640 19.72486 1810 ft 158 kts 171°
2026-05-08 08:31 41.37494 19.72643 2181 ft 176 kts 172°
2026-05-08 08:32 41.36215 19.72812 2520 ft 193 kts 172°
2026-05-08 08:32 41.34832 19.72987 2807 ft 209 kts 172°
2026-05-08 08:32 41.33297 19.73184 3025 ft 234 kts 171°
2026-05-08 08:32 41.31604 19.73402 3485 ft 251 kts 172°
2026-05-08 08:33 41.29829 19.73218 4217 ft 263 kts 194°
2026-05-08 08:33 41.28240 19.71947 4994 ft 275 kts 223°
2026-05-08 08:33 41.27173 19.69806 5793 ft 281 kts 238°
2026-05-08 08:33 41.26232 19.67535 6629 ft 281 kts 238°
2026-05-08 08:34 41.25283 19.65251 7410 ft 283 kts 237°
2026-05-08 08:34 41.24338 19.62943 8214 ft 286 kts 242°
2026-05-08 08:34 41.23857 19.60382 8964 ft 295 kts 266°
2026-05-08 08:34 41.24218 19.57683 9731 ft 303 kts 292°
2026-05-08 08:35 41.25424 19.55371 10371 ft 313 kts 313°
2026-05-08 08:35 41.27016 19.53248 10546 ft 336 kts 314°
2026-05-08 08:35 41.28746 19.51008 10836 ft 353 kts 314°
2026-05-08 08:35 41.30535 19.48712 11433 ft 359 kts 314°
2026-05-08 08:36 41.32341 19.46391 12082 ft 363 kts 313°
2026-05-08 08:36 41.34160 19.44039 12736 ft 366 kts 313°
2026-05-08 08:36 41.35990 19.41654 13351 ft 371 kts 314°
2026-05-08 08:36 41.37844 19.39226 13935 ft 376 kts 314°
2026-05-08 08:37 41.39719 19.36770 14527 ft 379 kts 313°
2026-05-08 08:37 41.41599 19.34300 15166 ft 380 kts 313°
2026-05-08 08:37 41.43461 19.31847 15792 ft 382 kts 313°
2026-05-08 08:37 41.45377 19.29321 16453 ft 383 kts 312°
2026-05-08 08:38 41.47277 19.26819 17083 ft 385 kts 312°
2026-05-08 08:38 41.49184 19.24308 17721 ft 386 kts 311°
2026-05-08 08:38 41.51103 19.21783 18326 ft 388 kts 311°
2026-05-08 08:38 41.53002 19.19282 18834 ft 390 kts 311°
2026-05-08 08:39 41.54938 19.16729 19350 ft 392 kts 311°
2026-05-08 08:39 41.56889 19.14156 19862 ft 395 kts 311°
2026-05-08 08:39 41.58846 19.11570 20385 ft 397 kts 311°
2026-05-08 08:39 41.60815 19.08961 20884 ft 400 kts 312°
2026-05-08 08:40 41.62798 19.06332 21361 ft 403 kts 312°
2026-05-08 08:40 41.64801 19.03673 21855 ft 406 kts 312°
2026-05-08 08:40 41.66811 19.01003 22365 ft 408 kts 312°
2026-05-08 08:40 41.68829 18.98316 22871 ft 410 kts 312°
2026-05-08 08:41 41.70850 18.95622 23363 ft 412 kts 313°
2026-05-08 08:41 41.72884 18.92911 23802 ft 414 kts 313°
2026-05-08 08:41 41.74929 18.90189 24182 ft 416 kts 312°
2026-05-08 08:41 41.76989 18.87441 24565 ft 418 kts 312°
2026-05-08 08:42 41.79048 18.84693 24927 ft 420 kts 312°
2026-05-08 08:42 41.81126 18.81915 25284 ft 422 kts 313°
2026-05-08 08:42 41.83206 18.79130 25644 ft 424 kts 313°
2026-05-08 08:42 41.85304 18.76324 26014 ft 426 kts 313°
2026-05-08 08:43 41.87411 18.73508 26367 ft 428 kts 313°
2026-05-08 08:43 41.89524 18.70678 26687 ft 431 kts 313°
2026-05-08 08:43 41.91650 18.67823 27015 ft 434 kts 313°
2026-05-08 08:43 41.93670 18.64820 27330 ft 434 kts 307°
2026-05-08 08:44 41.95570 18.61645 27678 ft 436 kts 307°
2026-05-08 08:44 41.97482 18.58451 28020 ft 438 kts 307°
2026-05-08 08:44 41.99375 18.55295 28363 ft 440 kts 307°
2026-05-08 08:44 42.01304 18.52086 28699 ft 442 kts 307°
2026-05-08 08:45 42.03237 18.48865 29040 ft 444 kts 307°
2026-05-08 08:45 42.05179 18.45623 29370 ft 446 kts 307°
2026-05-08 08:45 42.07130 18.42356 29693 ft 448 kts 307°
2026-05-08 08:45 42.09081 18.39080 30003 ft 450 kts 307°
2026-05-08 08:46 42.11046 18.35782 30279 ft 452 kts 307°
2026-05-08 08:46 42.13017 18.32475 30548 ft 454 kts 307°
2026-05-08 08:46 42.15005 18.29139 30822 ft 456 kts 306°
2026-05-08 08:46 42.16994 18.25800 31106 ft 458 kts 306°
2026-05-08 08:47 42.18991 18.22439 31419 ft 458 kts 306°
2026-05-08 08:47 42.20976 18.19091 31814 ft 457 kts 306°
2026-05-08 08:47 42.22956 18.15741 32212 ft 456 kts 306°
2026-05-08 08:47 42.24934 18.12394 32596 ft 455 kts 306°
2026-05-08 08:48 42.26907 18.09059 32986 ft 454 kts 306°
2026-05-08 08:48 42.28872 18.05735 33352 ft 453 kts 306°
2026-05-08 08:48 42.30838 18.02405 33733 ft 452 kts 306°
2026-05-08 08:48 42.32796 17.99085 34106 ft 451 kts 306°
2026-05-08 08:49 42.34748 17.95768 34412 ft 450 kts 305°
2026-05-08 08:49 42.36693 17.92458 34728 ft 449 kts 305°
2026-05-08 08:49 42.38635 17.89151 35037 ft 448 kts 305°
2026-05-08 08:49 42.40574 17.85850 35344 ft 448 kts 305°
2026-05-08 08:50 42.42508 17.82550 35658 ft 447 kts 305°
2026-05-08 08:50 42.44438 17.79255 35951 ft 446 kts 305°
2026-05-08 08:50 42.48277 17.72687 36040 ft 443 kts 305°
2026-05-08 08:51 42.52067 17.66180 36033 ft 442 kts 305°
2026-05-08 08:51 42.55875 17.59631 36030 ft 442 kts 305°
2026-05-08 08:52 42.59679 17.53073 36030 ft 442 kts 304°
2026-05-08 08:52 42.63480 17.46504 36032 ft 442 kts 304°
2026-05-08 08:53 42.67283 17.39927 36039 ft 443 kts 304°
2026-05-08 08:53 42.71091 17.33329 36054 ft 443 kts 304°
2026-05-08 08:54 42.74901 17.26720 36049 ft 444 kts 304°
2026-05-08 08:54 42.78703 17.20093 36048 ft 444 kts 304°
2026-05-08 08:55 42.82499 17.13463 36048 ft 444 kts 304°
2026-05-08 08:55 42.86288 17.06814 36051 ft 444 kts 304°
2026-05-08 08:56 42.90081 17.00169 36059 ft 444 kts 304°
2026-05-08 08:56 42.93228 16.94638 36056 ft 444 kts 304°
2026-05-08 08:57 42.97624 16.86896 36064 ft 443 kts 303°
2026-05-08 08:57 43.01397 16.80236 36058 ft 443 kts 303°
2026-05-08 08:58 43.04530 16.74703 36054 ft 442 kts 303°
2026-05-08 08:58 43.08284 16.68043 36071 ft 442 kts 303°
2026-05-08 08:59 43.12031 16.61376 36044 ft 441 kts 303°
2026-05-08 08:59 43.15773 16.54717 36043 ft 441 kts 303°
2026-05-08 09:00 43.19513 16.48042 36046 ft 441 kts 303°
2026-05-08 09:00 43.23217 16.41419 36067 ft 440 kts 303°
2026-05-08 09:01 43.26942 16.34740 36075 ft 440 kts 303°
2026-05-08 09:01 43.30660 16.28061 36069 ft 439 kts 303°
2026-05-08 09:02 43.34366 16.21391 36055 ft 439 kts 303°
2026-05-08 09:02 43.38059 16.14723 36058 ft 438 kts 303°
2026-05-08 09:03 43.41750 16.08042 36054 ft 438 kts 303°
2026-05-08 09:03 43.45409 16.01420 36053 ft 438 kts 303°
2026-05-08 09:04 43.49086 15.94730 36065 ft 438 kts 303°
2026-05-08 09:04 43.52757 15.88028 36066 ft 437 kts 303°
2026-05-08 09:05 43.56420 15.81341 36062 ft 437 kts 303°
2026-05-08 09:05 43.60081 15.74657 36066 ft 436 kts 303°
2026-05-08 09:06 43.63731 15.67961 36063 ft 436 kts 302°
2026-05-08 09:06 43.67375 15.61261 36074 ft 436 kts 302°
2026-05-08 09:07 43.71015 15.54553 36068 ft 436 kts 302°
2026-05-08 09:07 43.74651 15.47821 36064 ft 437 kts 302°
2026-05-08 09:08 43.78266 15.41134 36064 ft 437 kts 302°
2026-05-08 09:08 43.81904 15.34393 36069 ft 437 kts 302°
2026-05-08 09:09 43.85533 15.27641 36086 ft 437 kts 302°
2026-05-08 09:09 43.89161 15.20873 36081 ft 437 kts 302°
2026-05-08 09:10 43.92789 15.14109 36076 ft 437 kts 302°
2026-05-08 09:10 43.96409 15.07338 36074 ft 437 kts 302°
2026-05-08 09:11 44.00015 15.00555 36076 ft 437 kts 302°
2026-05-08 09:11 44.03622 14.93765 36087 ft 436 kts 302°
2026-05-08 09:12 44.07198 14.87033 36082 ft 435 kts 302°
2026-05-08 09:12 44.10777 14.80272 36081 ft 434 kts 302°
2026-05-08 09:13 44.14346 14.73503 36081 ft 433 kts 302°
2026-05-08 09:13 44.17909 14.66727 36077 ft 433 kts 302°
2026-05-08 09:14 44.21470 14.59959 36076 ft 433 kts 302°
2026-05-08 09:14 44.25025 14.53174 36067 ft 433 kts 302°
2026-05-08 09:15 44.28571 14.46390 36070 ft 433 kts 301°
2026-05-08 09:15 44.32118 14.39597 36074 ft 432 kts 302°
2026-05-08 09:16 44.35661 14.32808 36087 ft 432 kts 301°
2026-05-08 09:16 44.39172 14.26043 36078 ft 433 kts 301°
2026-05-08 09:17 44.42699 14.19225 36075 ft 433 kts 301°
2026-05-08 09:17 44.46229 14.12389 36074 ft 433 kts 301°
2026-05-08 09:18 44.49763 14.05538 36075 ft 434 kts 301°
2026-05-08 09:18 44.53285 13.98686 36096 ft 434 kts 301°
2026-05-08 09:19 44.56810 13.91815 36087 ft 433 kts 301°
2026-05-08 09:19 44.60325 13.84959 36083 ft 433 kts 301°
2026-05-08 09:20 44.63832 13.78096 36079 ft 432 kts 300°
2026-05-08 09:20 44.67331 13.71225 36063 ft 433 kts 300°
2026-05-08 09:21 44.69079 13.67786 35804 ft 432 kts 300°
2026-05-08 09:21 44.70825 13.64358 35552 ft 431 kts 300°
2026-05-08 09:22 44.81132 13.44000 34111 ft 418 kts 300°
2026-05-08 09:23 44.82812 13.40665 33854 ft 416 kts 299°
2026-05-08 09:23 44.84481 13.37343 33582 ft 415 kts 299°
2026-05-08 09:23 44.86140 13.34036 33258 ft 411 kts 299°
2026-05-08 09:23 44.87780 13.30767 32798 ft 407 kts 300°
2026-05-08 09:24 44.89409 13.27519 32333 ft 403 kts 300°
2026-05-08 09:24 44.91019 13.24301 31883 ft 400 kts 300°
2026-05-08 09:24 44.92617 13.21109 31438 ft 397 kts 300°
2026-05-08 09:24 44.94202 13.17943 30998 ft 394 kts 300°
2026-05-08 09:25 44.95779 13.14786 30542 ft 392 kts 300°
2026-05-08 09:25 44.97277 13.11603 30118 ft 386 kts 294°
2026-05-08 09:25 44.98383 13.08192 29679 ft 378 kts 285°
2026-05-08 09:25 44.99051 13.04691 29249 ft 371 kts 277°
2026-05-08 09:26 44.99441 13.01109 28849 ft 367 kts 276°
2026-05-08 09:26 44.99826 12.97553 28457 ft 364 kts 276°
2026-05-08 09:26 45.00210 12.94035 28062 ft 361 kts 276°
2026-05-08 09:26 45.00590 12.90546 27688 ft 358 kts 276°
2026-05-08 09:27 45.00964 12.87079 27312 ft 354 kts 276°
2026-05-08 09:27 45.01329 12.83654 26956 ft 351 kts 276°
2026-05-08 09:27 45.01689 12.80258 26576 ft 347 kts 276°
2026-05-08 09:27 45.02047 12.76904 26213 ft 344 kts 276°
2026-05-08 09:28 45.02403 12.73578 25849 ft 341 kts 276°
2026-05-08 09:28 45.02752 12.70281 25473 ft 339 kts 277°
2026-05-08 09:28 45.03095 12.67037 25107 ft 337 kts 277°
2026-05-08 09:28 45.03440 12.63766 24727 ft 336 kts 277°
2026-05-08 09:29 45.03782 12.60509 24360 ft 334 kts 277°
2026-05-08 09:29 45.04121 12.57261 23980 ft 333 kts 277°
2026-05-08 09:29 45.04456 12.54026 23577 ft 332 kts 277°
2026-05-08 09:29 45.04789 12.50800 23154 ft 331 kts 277°
2026-05-08 09:30 45.05121 12.47584 22757 ft 329 kts 277°
2026-05-08 09:30 45.05452 12.44386 22342 ft 328 kts 277°
2026-05-08 09:30 45.05779 12.41200 21967 ft 326 kts 277°
2026-05-08 09:30 45.06106 12.38035 21572 ft 324 kts 277°
2026-05-08 09:31 45.06429 12.34884 21185 ft 323 kts 277°
2026-05-08 09:31 45.06748 12.31747 20789 ft 321 kts 277°
2026-05-08 09:31 45.07066 12.28616 20401 ft 320 kts 277°
2026-05-08 09:31 45.07405 12.25550 20015 ft 319 kts 278°
2026-05-08 09:32 45.07799 12.22462 19629 ft 318 kts 279°
2026-05-08 09:32 45.08214 12.19385 19242 ft 317 kts 279°
2026-05-08 09:32 45.08633 12.16327 18854 ft 317 kts 279°
2026-05-08 09:32 45.09050 12.13262 18467 ft 316 kts 279°
2026-05-08 09:33 45.09460 12.10211 18041 ft 315 kts 278°
2026-05-08 09:33 45.09862 12.07173 17658 ft 313 kts 279°
2026-05-08 09:33 45.10260 12.04149 17281 ft 311 kts 278°
2026-05-08 09:33 45.10652 12.01156 16904 ft 309 kts 279°
2026-05-08 09:34 45.11039 11.98173 16524 ft 308 kts 279°
2026-05-08 09:34 45.11424 11.95197 16155 ft 307 kts 279°
2026-05-08 09:34 45.11810 11.92233 15782 ft 306 kts 278°
2026-05-08 09:34 45.12192 11.89280 15421 ft 304 kts 280°
2026-05-08 09:35 45.12568 11.86334 15051 ft 304 kts 278°
2026-05-08 09:35 45.12940 11.83393 14690 ft 303 kts 279°
2026-05-08 09:35 45.13312 11.80451 14318 ft 303 kts 278°
2026-05-08 09:35 45.13685 11.77517 13956 ft 303 kts 279°
2026-05-08 09:36 45.14057 11.74592 13570 ft 302 kts 279°
2026-05-08 09:36 45.14429 11.71674 13198 ft 300 kts 279°
2026-05-08 09:36 45.14795 11.68809 12849 ft 299 kts 279°
2026-05-08 09:36 45.15164 11.65921 12493 ft 297 kts 279°
2026-05-08 09:37 45.15454 11.63040 12147 ft 294 kts 273°
2026-05-08 09:37 45.15599 11.60148 11792 ft 294 kts 273°
2026-05-08 09:37 45.15743 11.57267 11441 ft 292 kts 273°
2026-05-08 09:37 45.15888 11.54401 11093 ft 291 kts 273°
2026-05-08 09:38 45.16032 11.51551 10748 ft 290 kts 274°
2026-05-08 09:38 45.16175 11.48709 10394 ft 289 kts 274°
2026-05-08 09:38 45.16316 11.45871 10051 ft 288 kts 274°
2026-05-08 09:38 45.16455 11.43043 9684 ft 287 kts 274°
2026-05-08 09:39 45.16593 11.40232 9337 ft 285 kts 274°
2026-05-08 09:39 45.16729 11.37435 8995 ft 284 kts 274°
2026-05-08 09:39 45.16865 11.34652 8649 ft 282 kts 274°
2026-05-08 09:39 45.17000 11.31893 8315 ft 280 kts 274°
2026-05-08 09:40 45.17134 11.29148 7976 ft 278 kts 274°
2026-05-08 09:40 45.17268 11.26420 7640 ft 277 kts 274°
2026-05-08 09:40 45.17396 11.23696 7273 ft 276 kts 274°
2026-05-08 09:40 45.17521 11.20984 6951 ft 275 kts 274°
2026-05-08 09:41 45.17788 11.18346 6800 ft 265 kts 282°
2026-05-08 09:41 45.18181 11.15829 6737 ft 260 kts 283°
2026-05-08 09:41 45.18574 11.13331 6685 ft 259 kts 283°
2026-05-08 09:41 45.18960 11.10877 6630 ft 258 kts 283°
2026-05-08 09:42 45.19354 11.08368 6505 ft 270 kts 283°
2026-05-08 09:42 45.19771 11.05729 6225 ft 277 kts 283°
2026-05-08 09:42 45.20190 11.03070 5893 ft 276 kts 283°
2026-05-08 09:42 45.20609 11.00406 5561 ft 278 kts 283°
2026-05-08 09:43 45.21028 10.97740 5231 ft 277 kts 283°
2026-05-08 09:43 45.21443 10.95075 4898 ft 276 kts 283°
2026-05-08 09:43 45.21857 10.92406 4567 ft 278 kts 283°
2026-05-08 09:43 45.22271 10.89738 4238 ft 276 kts 283°
2026-05-08 09:44 45.22681 10.87092 3906 ft 275 kts 282°
2026-05-08 09:44 45.22803 10.84388 3571 ft 275 kts 264°
2026-05-08 09:44 45.22357 10.81770 3255 ft 273 kts 246°
2026-05-08 09:44 45.21779 10.80201 3054 ft 270 kts 234°
2026-05-08 09:45 45.20583 10.78234 2979 ft 256 kts 224°
2026-05-08 09:45 45.19581 10.76249 2984 ft 243 kts 246°
2026-05-08 09:45 45.19252 10.73162 2995 ft 241 kts 278°
2026-05-08 09:45 45.19791 10.70925 2997 ft 241 kts 303°
2026-05-08 09:46 45.20496 10.69674 3011 ft 241 kts 320°
2026-05-08 09:46 45.21891 10.68436 3008 ft 236 kts 343°
2026-05-08 09:46 45.23488 10.68070 3009 ft 230 kts
2026-05-08 09:46 45.25023 10.68587 3007 ft 227 kts 29°
2026-05-08 09:47 45.26295 10.69852 3008 ft 223 kts 46°
2026-05-08 09:47 45.27422 10.71339 3007 ft 224 kts 45°
2026-05-08 09:47 45.28545 10.72886 2965 ft 226 kts 46°
2026-05-08 09:47 45.29655 10.74477 2762 ft 222 kts 48°
2026-05-08 09:48 45.30688 10.75969 2502 ft 208 kts 48°
2026-05-08 09:48 45.31673 10.77396 2226 ft 198 kts 47°
2026-05-08 09:48 45.32583 10.78710 2014 ft 176 kts 48°
2026-05-08 09:48 45.33388 10.79873 1783 ft 155 kts 49°
2026-05-08 09:49 45.34111 10.80921 1594 ft 144 kts 50°
2026-05-08 09:49 45.34806 10.81927 1429 ft 142 kts 50°
2026-05-08 09:49 45.35496 10.82915 1206 ft 141 kts 47°
2026-05-08 09:49 45.36176 10.83902 1057 ft 139 kts 49°
2026-05-08 09:50 45.36853 10.84883 836 ft 139 kts 49°
2026-05-08 09:50 45.37523 10.85872 645 ft 138 kts 47°
2026-05-08 09:50 45.38202 10.86860 412 ft 139 kts 49°
2026-05-08 09:50 45.38874 10.87839 240 ft 137 kts 49°
2026-05-08 09:51 45.39437 10.88661 238 ft 96 kts 45°
2026-05-08 09:51 45.39829 10.89231 240 ft 67 kts 46°
2026-05-08 09:51 45.40097 10.89614 245 ft 44 kts 44°
2026-05-08 09:51 45.40249 10.89845 247 ft 24 kts 54°
2026-05-08 09:52 45.40296 10.90031 245 ft 17 kts 75°
2026-05-08 09:52 45.40323 10.90180 243 ft 7 kts 76°
2026-05-08 09:52 45.40331 10.90259 242 ft 9 kts 99°
2026-05-08 09:52 45.40287 10.90341 242 ft 11 kts 134°
2026-05-08 09:53 45.40263 10.90414 242 ft 4 kts 71°
2026-05-08 09:53 45.40276 10.90443 242 ft 1 kts 57°
2026-05-08 09:53 45.40275 10.90452 242 ft 1 kts 95°
2026-05-08 09:53 45.40260 10.90491 242 ft 7 kts 130°
2026-05-08 09:54 45.40245 10.90513 242 ft 3 kts 135°
2026-05-08 09:54 45.40240 10.90520 242 ft 0 kts 135°